Time,TemperatureF,DewpointF,PressureIn,WindDirection,WindDirectionDegrees,WindSpeedMPH,WindSpeedGustMPH,Humidity,HourlyPrecipIn,Conditions,Clouds,dailyrainin,SolarRadiationWatts/m^2,SoftwareType,DateUTC
2013-04-17 00:22:00,32.0,24.0,30.12,NW,317,1.0,2.0,73,-99.99,,,-99.99,0.000000,,2013-04-17 07:22:00,
2013-04-17 00:32:00,32.0,24.0,30.12,NW,317,1.0,2.0,73,-99.99,,,-99.99,0.000000,,2013-04-17 07:32:00,
2013-04-17 00:40:00,32.0,25.0,30.13,SSW,192,2.0,4.0,75,-99.99,,,-99.99,0.000000,,2013-04-17 07:40:00,
2013-04-17 01:22:00,32.0,25.0,30.13,SSW,192,2.0,4.0,75,-99.99,,,-99.99,0.000000,,2013-04-17 08:22:00,
2013-04-17 01:32:00,32.0,25.0,30.13,SSW,192,2.0,4.0,75,-99.99,,,-99.99,0.000000,,2013-04-17 08:32:00,
2013-04-17 01:40:00,30.0,25.0,30.14,SSE,148,1.0,3.0,80,-99.99,,,-99.99,0.000000,,2013-04-17 08:40:00,
2013-04-17 02:22:00,30.0,25.0,30.14,SSE,148,1.0,3.0,80,-99.99,,,-99.99,0.000000,,2013-04-17 09:22:00,
2013-04-17 02:33:00,30.0,25.0,30.14,SSE,148,1.0,3.0,80,-99.99,,,-99.99,0.000000,,2013-04-17 09:33:00,
2013-04-17 02:40:00,28.0,23.0,30.14,NNW,327,2.0,4.0,81,-99.99,,,-99.99,0.000000,,2013-04-17 09:40:00,
2013-04-17 03:23:00,28.0,23.0,30.14,NNW,327,2.0,4.0,81,-99.99,,,-99.99,0.000000,,2013-04-17 10:23:00,
2013-04-17 03:32:00,28.0,23.0,30.14,NNW,327,2.0,4.0,81,-99.99,,,-99.99,0.000000,,2013-04-17 10:32:00,
2013-04-17 03:40:00,28.0,20.0,30.15,North,351,4.0,5.0,72,-99.99,,,-99.99,0.000000,,2013-04-17 10:40:00,
2013-04-17 04:22:00,28.0,20.0,30.15,North,351,4.0,5.0,72,-99.99,,,-99.99,0.000000,,2013-04-17 11:22:00,
2013-04-17 04:32:00,28.0,20.0,30.15,North,351,4.0,5.0,72,-99.99,,,-99.99,0.000000,,2013-04-17 11:32:00,
2013-04-17 04:40:00,29.0,18.0,30.16,NNW,338,6.0,8.0,65,-99.99,,,-99.99,0.000000,,2013-04-17 11:40:00,
2013-04-17 05:22:00,29.0,18.0,30.16,NNW,338,6.0,8.0,65,-99.99,,,-99.99,0.000000,,2013-04-17 12:22:00,
2013-04-17 05:32:00,29.0,18.0,30.16,NNW,338,6.0,8.0,65,-99.99,,,-99.99,0.000000,,2013-04-17 12:32:00,
2013-04-17 05:40:00,21.0,17.0,30.16,ESE,110,5.0,8.0,85,-99.99,,,-99.99,0.000000,,2013-04-17 12:40:00,
2013-04-17 06:22:00,21.0,17.0,30.16,ESE,110,5.0,8.0,85,-99.99,,,-99.99,0.000000,,2013-04-17 13:22:00,
2013-04-17 06:32:00,21.0,17.0,30.16,ESE,110,5.0,8.0,85,-99.99,,,-99.99,0.000000,,2013-04-17 13:32:00,
2013-04-17 06:40:00,18.0,16.0,30.19,ESE,108,4.0,5.0,89,-99.99,,,-99.99,20.000000,,2013-04-17 13:40:00,
2013-04-17 07:22:00,18.0,16.0,30.19,ESE,108,4.0,5.0,89,-99.99,,,-99.99,20.000000,,2013-04-17 14:22:00,
2013-04-17 07:40:00,27.0,21.0,30.21,East,92,3.0,6.0,79,-99.99,,,-99.99,210.000000,,2013-04-17 14:40:00,
2013-04-17 08:33:00,27.0,21.0,30.21,East,92,3.0,6.0,79,-99.99,,,-99.99,210.000000,,2013-04-17 15:33:00,
2013-04-17 08:40:00,34.0,16.0,30.21,North,8,10.0,14.0,48,-99.99,,,-99.99,430.000000,,2013-04-17 15:40:00,
2013-04-17 09:32:00,34.0,16.0,30.21,North,8,10.0,14.0,48,-99.99,,,-99.99,430.000000,,2013-04-17 16:32:00,
2013-04-17 09:40:00,36.0,14.0,30.22,NNE,28,6.0,11.0,40,-99.99,,,-99.99,650.000000,,2013-04-17 16:40:00,
2013-04-17 10:33:00,36.0,14.0,30.22,NNE,28,6.0,11.0,40,-99.99,,,-99.99,650.000000,,2013-04-17 17:33:00,
2013-04-17 10:40:00,37.0,16.0,30.22,NNW,331,4.0,8.0,42,-99.99,,,-99.99,820.000000,,2013-04-17 17:40:00,
2013-04-17 11:32:00,37.0,16.0,30.22,NNW,331,4.0,8.0,42,-99.99,,,-99.99,820.000000,,2013-04-17 18:32:00,
2013-04-17 11:40:00,39.0,16.0,30.23,NNW,344,5.0,11.0,39,-99.99,,,-99.99,940.000000,,2013-04-17 18:40:00,
2013-04-17 12:32:00,39.0,16.0,30.23,NNW,344,5.0,11.0,39,-99.99,,,-99.99,940.000000,,2013-04-17 19:32:00,
2013-04-17 12:40:00,41.0,14.0,30.23,NE,53,8.0,16.0,33,-99.99,,,-99.99,990.000000,,2013-04-17 19:40:00,
2013-04-17 13:32:00,41.0,14.0,30.23,NE,53,8.0,16.0,33,-99.99,,,-99.99,990.000000,,2013-04-17 20:32:00,
2013-04-17 13:40:00,43.0,19.0,30.22,NW,306,8.0,16.0,38,-99.99,,,-99.99,980.000000,,2013-04-17 20:40:00,
2013-04-17 14:32:00,43.0,19.0,30.22,NW,306,8.0,16.0,38,-99.99,,,-99.99,980.000000,,2013-04-17 21:32:00,
2013-04-17 14:40:00,45.0,19.0,30.20,NNW,341,10.0,20.0,34,-99.99,,,-99.99,900.000000,,2013-04-17 21:40:00,
2013-04-17 15:33:00,45.0,19.0,30.20,NNW,341,10.0,20.0,34,-99.99,,,-99.99,900.000000,,2013-04-17 22:33:00,
2013-04-17 15:40:00,48.0,16.0,30.20,North,5,10.0,18.0,28,-99.99,,,-99.99,770.000000,,2013-04-17 22:40:00,
2013-04-17 16:32:00,48.0,16.0,30.20,North,5,10.0,18.0,28,-99.99,,,-99.99,770.000000,,2013-04-17 23:32:00,
2013-04-17 16:40:00,48.0,13.0,30.21,NNE,22,9.0,15.0,24,-99.99,,,-99.99,590.000000,,2013-04-17 23:40:00,
2013-04-17 17:32:00,48.0,13.0,30.21,NNE,22,9.0,15.0,24,-99.99,,,-99.99,590.000000,,2013-04-18 00:32:00,
2013-04-17 17:40:00,47.0,13.0,30.21,North,4,5.0,10.0,25,-99.99,,,-99.99,380.000000,,2013-04-18 00:40:00,
2013-04-17 18:32:00,47.0,13.0,30.21,North,4,5.0,10.0,25,-99.99,,,-99.99,380.000000,,2013-04-18 01:32:00,
2013-04-17 20:22:00,38.0,18.0,30.22,NNW,337,6.0,8.0,44,-99.99,,,-99.99,10.000000,,2013-04-18 03:22:00,
2013-04-17 20:33:00,38.0,18.0,30.22,NNW,337,6.0,8.0,44,-99.99,,,-99.99,10.000000,,2013-04-18 03:33:00,
2013-04-17 21:40:00,34.0,18.0,30.28,NNW,335,4.0,5.0,51,-99.99,,,-99.99,0.000000,,2013-04-18 04:40:00,
2013-04-17 22:22:00,34.0,18.0,30.28,NNW,335,4.0,5.0,51,-99.99,,,-99.99,0.000000,,2013-04-18 05:22:00,
2013-04-17 22:32:00,34.0,18.0,30.28,NNW,335,4.0,5.0,51,-99.99,,,-99.99,0.000000,,2013-04-18 05:32:00,
2013-04-17 22:40:00,30.0,19.0,30.29,SE,126,3.0,4.0,61,-99.99,,,-99.99,0.000000,,2013-04-18 05:40:00,
2013-04-17 23:32:00,30.0,19.0,30.29,SE,126,3.0,4.0,61,-99.99,,,-99.99,0.000000,,2013-04-18 06:32:00,
2013-04-17 23:40:00,28.0,18.0,30.29,SSE,148,4.0,5.0,66,-99.99,,,-99.99,0.000000,,2013-04-18 06:40:00,